TITAN 3C TRANSTAGE DEB, 19518

Orbit data source: Space-Track

TITAN 3C TRANSTAGE DEB, 19518 is space debris in HEO originally from a launch on Tue, 21 Dec 1965 UTC launched from the Air Force Eastern Test Range (AFETR). Debris objects in space refer to the collection of defunct objects orbiting the Earth. Examples of debris include non-operational satellites, rocket bodies, and fragments generated from explosions, collisions, or faulty payload assembly.

Loading next visibility...
Identifier
19518, 1965-108Z
Orbit
HEO
Country
Flag of USUS
Related business
Manufacturer
Unknown
Mission
Spacecraft
Bus & Motor
Unknown
Mass
Unknown
Launch date (UTC)
1965-12-21 (61 years ago)
Launch vehicle
Unknown
Launch site
Air Force Eastern Test Range (AFETR)
Object type
Payload
Rocket body
Debris
Shape & HBR
Unknown shape, 0.1 m
Radar Cross Section
Medium (>0.1 m² and <1 m²)

Expand to show TLE details & history
Last TLE update: 6 days ago

TLE from 6 days ago
0 TITAN 3C TRANSTAGE DEB
1 19518U 65108Z   26172.35554598 -.00000132  00000-0 -49572-3 0  9994
2 19518  26.3027 266.7245 6644023  90.9969 353.9465  2.92192162344881
Epoch: 2026-06-21T08:31Z
TLE epoch observation values (Epoch: 2026-06-21T08:31:59.172Z)
Latitude
20.83946°
Longitude
-80.81618°
Altitude
1,206.304 km
Speed
9.266 km/s
True Right ascension
21h 06m 56s
True Declination
20° 43' 56"
Sunlit
Object was in daylight at epoch
Visualization orbit readout
Latitude
Unknown
Longitude
Unknown
Altitude
Unknown
Speed
Unknown
Apparent Right ascension
Unknown
Apparent Declination
Unknown
Sunlit
N/A
Visualization observer readout
Local Sidereal Time
12:02:25
Azimuth
Unknown
Elevation
Unknown
Doppler factor
Unknown
Orbital elements
Apogee altitude
28,027.034 km
Perigee altitude
559.066 km
Semi-major axis
20,671.187 km
Eccentricity
0.6644
Inclination
26.3027°
RAAN
266.7245°
Arg. of periapsis
90.9969°
True anomaly
322.15653°
Mean anomaly
353.9465°
Eccentric anomaly
342.49836°
Mean motion
0.73029 °/min
Orbital period
492.96 mins
BSTAR
-0.00049572
Loading maneuver chart data...
Computing Atmospheric mass density...

Documentation

Showing up to 5 results
|